AXB113 VQPR-OPKC

Flight info

Callsign AXB113
Flight time 3h 8m
Altitude 36000
Route PRO G348 KTM B345 BWA/N0451F340 B345 LKN J20 JJP W58 JDP Z15 RAMSA R462 KE
Aircraft B738/M-SDE2E3FGHIRWXY/LB1

Departure

Time 2026-05-05 08:58
Airport Paro International Airport (VQPR)

Arrival

Time 2026-05-05 12:07
Airport Jinnah International Airport (OPKC)
Time Latitude Longitude Altitude Speed Heading
2026-05-05 08:44 27.40637 89.42112 7375 ft 0 kts 238°
2026-05-05 08:55 27.40636 89.42112 7347 ft 0 kts 238°
2026-05-05 08:55 27.40638 89.42114 7347 ft 0 kts 234°
2026-05-05 08:55 27.40647 89.42099 7348 ft 5 kts 332°
2026-05-05 08:56 27.40731 89.42079 7349 ft 15 kts 349°
2026-05-05 08:56 27.40826 89.42095 7351 ft 14 kts 42°
2026-05-05 08:56 27.40914 89.42097 7354 ft 14 kts 330°
2026-05-05 08:56 27.40998 89.42046 7358 ft 16 kts 332°
2026-05-05 08:57 27.41110 89.41975 7360 ft 19 kts 326°
2026-05-05 08:57 27.41190 89.41908 7361 ft 6 kts 21°
2026-05-05 08:57 27.41188 89.41924 7360 ft 2 kts 137°
2026-05-05 08:57 27.41047 89.42017 7358 ft 54 kts 150°
2026-05-05 08:58 27.40533 89.42343 7339 ft 114 kts 151°
2026-05-05 08:58 27.39688 89.42884 7318 ft 163 kts 149°
2026-05-05 08:58 27.38675 89.43587 7734 ft 177 kts 142°
2026-05-05 08:58 27.37806 89.44668 8296 ft 194 kts 132°
2026-05-05 08:59 27.36808 89.45786 8552 ft 209 kts 144°
2026-05-05 08:59 27.35625 89.46707 9199 ft 206 kts 150°
2026-05-05 08:59 27.34362 89.47499 10014 ft 209 kts 149°
2026-05-05 08:59 27.33218 89.48511 10651 ft 211 kts 137°
2026-05-05 09:00 27.32303 89.49827 11125 ft 218 kts 122°
2026-05-05 09:00 27.31603 89.51396 11463 ft 230 kts 120°
2026-05-05 09:00 27.30583 89.52756 12018 ft 229 kts 150°
2026-05-05 09:00 27.29120 89.53439 12536 ft 230 kts 173°
2026-05-05 09:01 27.27485 89.53305 12687 ft 247 kts 206°
2026-05-05 09:01 27.26180 89.52044 12885 ft 255 kts 238°
2026-05-05 09:01 27.25343 89.50279 13337 ft 259 kts 244°
2026-05-05 09:01 27.24558 89.48396 13554 ft 276 kts 245°
2026-05-05 09:02 27.23728 89.46364 13772 ft 297 kts 246°
2026-05-05 09:02 27.22837 89.44190 13958 ft 315 kts 245°
2026-05-05 09:02 27.21882 89.41884 14080 ft 335 kts 245°
2026-05-05 09:02 27.20867 89.39455 14341 ft 348 kts 245°
2026-05-05 09:03 27.19825 89.36982 14841 ft 353 kts 245°
2026-05-05 09:03 27.18765 89.34475 15359 ft 356 kts 245°
2026-05-05 09:03 27.17693 89.31950 15929 ft 359 kts 245°
2026-05-05 09:03 27.16611 89.29402 16436 ft 364 kts 245°
2026-05-05 09:04 27.15509 89.26815 16881 ft 372 kts 245°
2026-05-05 09:04 27.14396 89.24205 17894 ft 369 kts 245°
2026-05-05 09:04 27.13285 89.21603 18779 ft 368 kts 245°
2026-05-05 09:04 27.12173 89.19001 19394 ft 372 kts 245°
2026-05-05 09:05 27.11051 89.16373 20010 ft 373 kts 245°
2026-05-05 09:05 27.09928 89.13746 20733 ft 374 kts 245°
2026-05-05 09:05 27.08814 89.11141 21295 ft 376 kts 245°
2026-05-05 09:05 27.07681 89.08493 21978 ft 377 kts 244°
2026-05-05 09:06 27.06546 89.05843 22625 ft 376 kts 244°
2026-05-05 09:06 27.05408 89.03187 22996 ft 380 kts 244°
2026-05-05 09:06 27.04256 89.00502 23333 ft 384 kts 244°
2026-05-05 09:06 27.03095 88.97796 23695 ft 386 kts 244°
2026-05-05 09:07 27.01930 88.95080 24035 ft 387 kts 244°
2026-05-05 09:07 27.01155 88.93274 24259 ft 388 kts 244°
2026-05-05 09:07 26.99583 88.89618 24672 ft 391 kts 244°
2026-05-05 09:07 26.98800 88.87797 24859 ft 392 kts 244°
2026-05-05 09:08 26.97531 88.85083 25154 ft 394 kts 240°
2026-05-05 09:08 26.96113 88.82449 25440 ft 396 kts 239°
2026-05-05 09:08 26.94667 88.79817 25712 ft 397 kts 239°
2026-05-05 09:08 26.93210 88.77175 25995 ft 399 kts 239°
2026-05-05 09:09 26.91751 88.74523 26261 ft 401 kts 239°
2026-05-05 09:09 26.90288 88.71856 26529 ft 402 kts 239°
2026-05-05 09:09 26.88826 88.69182 26791 ft 404 kts 239°
2026-05-05 09:09 26.87358 88.66493 27053 ft 405 kts 239°
2026-05-05 09:10 26.85883 88.63792 27287 ft 407 kts 239°
2026-05-05 09:10 26.84404 88.61083 27520 ft 409 kts 239°
2026-05-05 09:10 26.82919 88.58364 27768 ft 410 kts 239°
2026-05-05 09:10 26.81427 88.55634 28013 ft 412 kts 240°
2026-05-05 09:11 26.79931 88.52899 28252 ft 413 kts 240°
2026-05-05 09:11 26.78428 88.50153 28491 ft 414 kts 240°
2026-05-05 09:11 26.76921 88.47400 28704 ft 416 kts 240°
2026-05-05 09:11 26.75405 88.44634 28913 ft 417 kts 240°
2026-05-05 09:12 26.73885 88.41862 29134 ft 419 kts 240°
2026-05-05 09:12 26.72365 88.39080 29359 ft 419 kts 242°
2026-05-05 09:12 26.71271 88.36067 29525 ft 420 kts 257°
2026-05-05 09:12 26.70947 88.32819 29749 ft 423 kts 269°
2026-05-05 09:13 26.71244 88.29578 30009 ft 426 kts 279°
2026-05-05 09:13 26.72189 88.26380 30286 ft 431 kts 292°
2026-05-05 09:13 26.73723 88.23488 30605 ft 433 kts 298°
2026-05-05 09:13 26.75348 88.20706 30872 ft 432 kts 298°
2026-05-05 09:14 26.76997 88.17839 31106 ft 432 kts 297°
2026-05-05 09:14 26.78606 88.15004 31370 ft 431 kts 297°
2026-05-05 09:14 26.80173 88.12218 31781 ft 426 kts 297°
2026-05-05 09:14 26.81762 88.09381 32093 ft 425 kts 296°
2026-05-05 09:15 26.83316 88.06604 32195 ft 428 kts 296°
2026-05-05 09:15 26.84898 88.03771 32383 ft 430 kts 296°
2026-05-05 09:15 26.86501 88.00900 32720 ft 427 kts 296°
2026-05-05 09:15 26.88068 87.98098 33127 ft 423 kts 296°
2026-05-05 09:16 26.89629 87.95303 33366 ft 424 kts 296°
2026-05-05 09:16 26.91192 87.92500 33554 ft 425 kts 296°
2026-05-05 09:16 26.92758 87.89694 33809 ft 424 kts 296°
2026-05-05 09:16 26.94320 87.86892 34051 ft 423 kts 296°
2026-05-05 09:17 26.95877 87.84099 34284 ft 422 kts 296°
2026-05-05 09:17 26.97433 87.81306 34482 ft 422 kts 296°
2026-05-05 09:17 26.98990 87.78507 34630 ft 424 kts 296°
2026-05-05 09:17 27.00547 87.75708 34890 ft 422 kts 296°
2026-05-05 09:18 27.02096 87.72922 35156 ft 420 kts 296°
2026-05-05 09:18 27.03639 87.70146 35338 ft 419 kts 296°
2026-05-05 09:18 27.05180 87.67371 35471 ft 419 kts 296°
2026-05-05 09:18 27.06720 87.64594 35601 ft 420 kts 296°
2026-05-05 09:19 27.08264 87.61808 35775 ft 420 kts 296°
2026-05-05 09:19 27.09806 87.59025 35964 ft 419 kts 296°
2026-05-05 09:19 27.11344 87.56248 35969 ft 419 kts 296°
2026-05-05 09:20 27.14407 87.50709 36019 ft 423 kts 296°
2026-05-05 09:20 27.17529 87.45057 36003 ft 427 kts 296°
2026-05-05 09:21 27.20664 87.39379 36022 ft 428 kts 296°
2026-05-05 09:21 27.23805 87.33682 36048 ft 429 kts 296°
2026-05-05 09:22 27.26965 87.27935 36046 ft 435 kts 296°
2026-05-05 09:22 27.30146 87.22124 36049 ft 437 kts 294°
2026-05-05 09:23 27.32401 87.15887 36041 ft 427 kts 279°
2026-05-05 09:23 27.33658 87.09402 36063 ft 422 kts 278°
2026-05-05 09:24 27.34898 87.02936 36090 ft 425 kts 278°
2026-05-05 09:24 27.36166 86.96421 36070 ft 428 kts 279°
2026-05-05 09:25 27.37447 86.89930 36121 ft 424 kts 279°
2026-05-05 09:25 27.38725 86.83426 36110 ft 426 kts 279°
2026-05-05 09:26 27.40002 86.76902 36107 ft 427 kts 279°
2026-05-05 09:26 27.41276 86.70375 36121 ft 427 kts 279°
2026-05-05 09:27 27.42541 86.63881 36109 ft 428 kts 279°
2026-05-05 09:27 27.43812 86.57334 36095 ft 428 kts 278°
2026-05-05 09:28 27.45079 86.50805 36116 ft 426 kts 278°
2026-05-05 09:28 27.46339 86.44279 36101 ft 427 kts 279°
2026-05-05 09:29 27.47600 86.37735 36097 ft 428 kts 279°
2026-05-05 09:29 27.48860 86.31186 36101 ft 428 kts 279°
2026-05-05 09:30 27.50122 86.24623 36080 ft 429 kts 279°
2026-05-05 09:30 27.51405 86.18064 36083 ft 429 kts 279°
2026-05-05 09:31 27.52693 86.11491 36079 ft 429 kts 279°
2026-05-05 09:31 27.53975 86.04923 36025 ft 425 kts 279°
2026-05-05 09:32 27.55233 85.98472 36039 ft 419 kts 279°
2026-05-05 09:32 27.56488 85.92028 36067 ft 424 kts 279°
2026-05-05 09:33 27.57742 85.85492 36063 ft 429 kts 279°
2026-05-05 09:33 27.59011 85.78897 36050 ft 431 kts 279°
2026-05-05 09:34 27.60278 85.72295 36055 ft 432 kts 278°
2026-05-05 09:34 27.61547 85.65673 36055 ft 433 kts 279°
2026-05-05 09:35 27.62815 85.59039 36059 ft 433 kts 279°
2026-05-05 09:35 27.64714 85.49075 36046 ft 433 kts 278°
2026-05-05 09:36 27.65974 85.42438 36048 ft 432 kts 278°
2026-05-05 09:36 27.67203 85.35807 36045 ft 431 kts 276°
2026-05-05 09:37 27.67527 85.29119 36055 ft 426 kts 268°
2026-05-05 09:37 27.67535 85.22480 36054 ft 426 kts 267°
2026-05-05 09:38 27.67559 85.15737 36042 ft 428 kts 268°
2026-05-05 09:38 27.67599 85.09111 36036 ft 423 kts 268°
2026-05-05 09:39 27.67643 85.02474 36023 ft 422 kts 268°
2026-05-05 09:39 27.67685 84.95850 36014 ft 421 kts 268°
2026-05-05 09:40 27.67723 84.89230 35992 ft 423 kts 268°
2026-05-05 09:40 27.67758 84.82583 35990 ft 425 kts 268°
2026-05-05 09:41 27.67841 84.75911 35985 ft 426 kts 268°
2026-05-05 09:41 27.67839 84.69233 35952 ft 425 kts 268°
2026-05-05 09:42 27.67845 84.62549 35961 ft 427 kts 268°
2026-05-05 09:42 27.67865 84.55836 35958 ft 428 kts 268°
2026-05-05 09:43 27.67886 84.49116 35944 ft 428 kts 268°
2026-05-05 09:43 27.67785 84.42401 35928 ft 427 kts 262°
2026-05-05 09:44 27.66694 84.35830 35927 ft 426 kts 257°
2026-05-05 09:44 27.65494 84.29275 35920 ft 426 kts 258°
2026-05-05 09:45 27.64315 84.22727 35917 ft 426 kts 258°
2026-05-05 09:45 27.63154 84.16217 35912 ft 426 kts 258°
2026-05-05 09:46 27.61987 84.09668 35910 ft 426 kts 258°
2026-05-05 09:46 27.60817 84.03119 35906 ft 426 kts 258°
2026-05-05 09:47 27.59643 83.96567 35897 ft 426 kts 258°
2026-05-05 09:47 27.58467 83.90027 35895 ft 425 kts 258°
2026-05-05 09:48 27.57289 83.83492 35897 ft 425 kts 258°
2026-05-05 09:48 27.56107 83.76956 35884 ft 426 kts 258°
2026-05-05 09:49 27.54923 83.70425 35882 ft 425 kts 258°
2026-05-05 09:49 27.53745 83.63943 35879 ft 425 kts 258°
2026-05-05 09:50 27.52556 83.57423 35881 ft 425 kts 258°
2026-05-05 09:50 27.51366 83.50907 35876 ft 424 kts 258°
2026-05-05 09:51 27.50166 83.44397 35877 ft 424 kts 256°
2026-05-05 09:51 27.48450 83.38040 35878 ft 423 kts 252°
2026-05-05 09:52 27.46616 83.31733 35880 ft 423 kts 252°
2026-05-05 09:52 27.44807 83.25428 35878 ft 423 kts 252°
2026-05-05 09:53 27.43018 83.19166 35879 ft 423 kts 252°
2026-05-05 09:53 27.41521 83.13889 35874 ft 422 kts 252°
2026-05-05 09:54 27.39459 83.06557 35870 ft 423 kts 252°
2026-05-05 09:54 27.37683 83.00255 35870 ft 422 kts 252°
2026-05-05 09:55 27.36203 82.95015 35870 ft 422 kts 252°
2026-05-05 09:55 27.34410 82.88683 35870 ft 422 kts 252°
2026-05-05 09:56 27.32636 82.82430 35872 ft 422 kts 252°
2026-05-05 09:56 27.30849 82.76144 35866 ft 421 kts 252°
2026-05-05 09:57 27.29060 82.69864 35865 ft 421 kts 252°
2026-05-05 09:57 27.27269 82.63584 35864 ft 421 kts 252°
2026-05-05 09:58 27.25476 82.57313 35863 ft 421 kts 252°
2026-05-05 09:58 27.23690 82.51079 35860 ft 421 kts 252°
2026-05-05 09:59 27.21892 82.44813 35863 ft 421 kts 252°
2026-05-05 09:59 27.20091 82.38545 35862 ft 421 kts 252°
2026-05-05 10:00 27.18286 82.32276 35857 ft 421 kts 252°
2026-05-05 10:00 27.16480 82.26016 35858 ft 422 kts 252°
2026-05-05 10:01 27.14668 82.19745 35859 ft 422 kts 252°
2026-05-05 10:01 27.12886 82.13460 35861 ft 423 kts 252°
2026-05-05 10:02 27.11118 82.07167 35862 ft 423 kts 252°
2026-05-05 10:02 27.09348 82.00886 35869 ft 424 kts 252°
2026-05-05 10:03 27.07584 81.94653 35859 ft 425 kts 252°
2026-05-05 10:03 27.05793 81.88340 35865 ft 425 kts 252°
2026-05-05 10:04 27.04005 81.82048 35871 ft 426 kts 252°
2026-05-05 10:04 27.02205 81.75724 35863 ft 426 kts 252°
2026-05-05 10:05 27.00400 81.69396 35864 ft 426 kts 252°
2026-05-05 10:05 26.98586 81.63051 35869 ft 427 kts 252°
2026-05-05 10:06 26.96777 81.56731 35868 ft 427 kts 252°
2026-05-05 10:06 26.94957 81.50381 35871 ft 427 kts 252°
2026-05-05 10:07 26.93112 81.44057 35872 ft 427 kts 251°
2026-05-05 10:07 26.91146 81.37782 35872 ft 427 kts 251°
2026-05-05 10:08 26.89159 81.31504 35869 ft 427 kts 251°
2026-05-05 10:08 26.87187 81.25235 35878 ft 427 kts 251°
2026-05-05 10:09 26.85227 81.18989 35873 ft 427 kts 251°
2026-05-05 10:09 26.83256 81.12717 35868 ft 427 kts 251°
2026-05-05 10:10 26.81284 81.06452 35864 ft 427 kts 251°
2026-05-05 10:10 26.79313 81.00199 35859 ft 427 kts 251°
2026-05-05 10:11 26.77320 80.93890 35856 ft 426 kts 251°
2026-05-05 10:11 26.75971 80.87509 35861 ft 426 kts 263°
2026-05-05 10:12 26.75891 80.80862 35857 ft 426 kts 269°
2026-05-05 10:12 26.75970 80.74226 35860 ft 426 kts 269°
2026-05-05 10:13 26.76024 80.67585 35868 ft 426 kts 269°
2026-05-05 10:13 26.76060 80.60994 35869 ft 426 kts 269°
2026-05-05 10:14 26.76088 80.54367 35875 ft 426 kts 269°
2026-05-05 10:14 26.76114 80.47704 35879 ft 426 kts 269°
2026-05-05 10:15 26.76137 80.41121 35880 ft 426 kts 269°
2026-05-05 10:15 26.76157 80.34485 35883 ft 426 kts 269°
2026-05-05 10:16 26.76174 80.27852 35879 ft 426 kts 269°
2026-05-05 10:16 26.76189 80.21238 35876 ft 426 kts 269°
2026-05-05 10:17 26.76200 80.14618 35877 ft 425 kts 269°
2026-05-05 10:17 26.76285 80.08017 35878 ft 426 kts 270°
2026-05-05 10:18 26.76422 80.01393 35877 ft 426 kts 270°
2026-05-05 10:18 26.76552 79.94788 35877 ft 426 kts 270°
2026-05-05 10:19 26.76670 79.88171 35876 ft 426 kts 270°
2026-05-05 10:19 26.76781 79.81543 35877 ft 426 kts 270°
2026-05-05 10:20 26.76889 79.74915 35879 ft 425 kts 270°
2026-05-05 10:20 26.76993 79.68294 35880 ft 425 kts 270°
2026-05-05 10:21 26.77095 79.61668 35882 ft 425 kts 270°
2026-05-05 10:21 26.77193 79.55093 35883 ft 425 kts 270°
2026-05-05 10:22 26.77289 79.48477 35881 ft 425 kts 270°
2026-05-05 10:22 26.77381 79.41858 35883 ft 425 kts 270°
2026-05-05 10:23 26.77471 79.35188 35884 ft 425 kts 270°
2026-05-05 10:23 26.77557 79.28621 35883 ft 425 kts 270°
2026-05-05 10:24 26.77641 79.21997 35882 ft 425 kts 270°
2026-05-05 10:24 26.77722 79.15337 35883 ft 425 kts 270°
2026-05-05 10:25 26.77799 79.08717 35882 ft 425 kts 270°
2026-05-05 10:25 26.77936 79.02112 35880 ft 425 kts 271°
2026-05-05 10:26 26.78115 78.95485 35879 ft 425 kts 271°
2026-05-05 10:26 26.78286 78.88916 35874 ft 425 kts 271°
2026-05-05 10:27 26.78450 78.82246 35873 ft 426 kts 271°
2026-05-05 10:27 26.78605 78.75673 35874 ft 426 kts 271°
2026-05-05 10:28 26.78757 78.69055 35874 ft 426 kts 271°
2026-05-05 10:28 26.78906 78.62422 35865 ft 425 kts 271°
2026-05-05 10:29 26.79052 78.55822 35864 ft 424 kts 271°
2026-05-05 10:29 26.79195 78.49218 35864 ft 423 kts 271°
2026-05-05 10:30 26.79335 78.42640 35859 ft 423 kts 271°
2026-05-05 10:30 26.79470 78.36110 35864 ft 422 kts 272°
2026-05-05 10:31 26.79604 78.29496 35864 ft 422 kts 272°
2026-05-05 10:31 26.79733 78.22978 35863 ft 422 kts 272°
2026-05-05 10:32 26.79860 78.16410 35862 ft 422 kts 272°
2026-05-05 10:32 26.79984 78.09846 35865 ft 422 kts 272°
2026-05-05 10:33 26.80105 78.03295 35863 ft 422 kts 272°
2026-05-05 10:33 26.80223 77.96732 35866 ft 422 kts 272°
2026-05-05 10:34 26.80338 77.90157 35876 ft 423 kts 272°
2026-05-05 10:34 26.80450 77.83580 35867 ft 423 kts 272°
2026-05-05 10:35 26.80560 77.76947 35874 ft 423 kts 272°
2026-05-05 10:35 26.80665 77.70409 35874 ft 424 kts 272°
2026-05-05 10:36 26.80768 77.63819 35880 ft 424 kts 272°
2026-05-05 10:36 26.80868 77.57216 35882 ft 424 kts 272°
2026-05-05 10:37 26.80966 77.50601 35882 ft 425 kts 272°
2026-05-05 10:37 26.81060 77.43980 35889 ft 425 kts 272°
2026-05-05 10:38 26.81151 77.37358 35892 ft 426 kts 272°
2026-05-05 10:38 26.81240 77.30719 35891 ft 426 kts 272°
2026-05-05 10:39 26.81326 77.24094 35896 ft 426 kts 272°
2026-05-05 10:39 26.81395 77.18548 35896 ft 427 kts 272°
2026-05-05 10:40 26.81444 77.11908 35899 ft 426 kts 271°
2026-05-05 10:40 26.81468 77.05310 35898 ft 426 kts 271°
2026-05-05 10:41 26.81490 76.98651 35896 ft 426 kts 271°
2026-05-05 10:41 26.81514 76.92001 35899 ft 426 kts 271°
2026-05-05 10:42 26.81545 76.82082 35896 ft 426 kts 271°
2026-05-05 10:43 26.81562 76.75457 35898 ft 425 kts 271°
2026-05-05 10:43 26.81576 76.68808 35900 ft 425 kts 272°
2026-05-05 10:44 26.81587 76.62200 35899 ft 424 kts 272°
2026-05-05 10:44 26.81595 76.55629 35896 ft 424 kts 272°
2026-05-05 10:45 26.81600 76.49010 35893 ft 424 kts 272°
2026-05-05 10:45 26.81672 76.42408 35892 ft 424 kts 273°
2026-05-05 10:46 26.81802 76.35821 35892 ft 424 kts 273°
2026-05-05 10:46 26.81924 76.29229 35893 ft 423 kts 273°
2026-05-05 10:47 26.82033 76.22672 35890 ft 423 kts 273°
2026-05-05 10:47 26.82137 76.16080 35890 ft 423 kts 273°
2026-05-05 10:48 26.82237 76.09486 35888 ft 423 kts 273°
2026-05-05 10:48 26.82335 76.02866 35888 ft 424 kts 273°
2026-05-05 10:49 26.82429 75.96274 35884 ft 424 kts 273°
2026-05-05 10:49 26.82521 75.89724 35889 ft 424 kts 273°
2026-05-05 10:50 26.82417 75.83079 35880 ft 426 kts 266°
2026-05-05 10:50 26.81195 75.76564 35881 ft 429 kts 260°
2026-05-05 10:51 26.79837 75.70066 35884 ft 429 kts 261°
2026-05-05 10:51 26.78508 75.63607 35886 ft 429 kts 261°
2026-05-05 10:52 26.77181 75.57093 35883 ft 429 kts 261°
2026-05-05 10:52 26.75852 75.50572 35889 ft 429 kts 261°
2026-05-05 10:53 26.74498 75.43949 35875 ft 429 kts 261°
2026-05-05 10:53 26.73165 75.37444 35882 ft 429 kts 261°
2026-05-05 10:54 26.71828 75.30935 35877 ft 429 kts 261°
2026-05-05 10:54 26.70496 75.24466 35873 ft 429 kts 261°
2026-05-05 10:55 26.69155 75.17968 35874 ft 429 kts 261°
2026-05-05 10:55 26.67887 75.11438 35873 ft 429 kts 262°
2026-05-05 10:56 26.66666 75.04896 35875 ft 429 kts 262°
2026-05-05 10:56 26.65432 74.98373 35881 ft 429 kts 262°
2026-05-05 10:57 26.64100 74.91906 35879 ft 432 kts 256°
2026-05-05 10:57 26.61586 74.85749 35878 ft 443 kts 243°
2026-05-05 10:58 26.58591 74.79792 35885 ft 435 kts 253°
2026-05-05 10:58 26.57019 74.73360 35888 ft 428 kts 263°
2026-05-05 10:59 26.55861 74.66831 35881 ft 428 kts 263°
2026-05-05 10:59 26.54704 74.60348 35874 ft 428 kts 263°
2026-05-05 11:00 26.53511 74.53823 35867 ft 429 kts 263°
2026-05-05 11:00 26.52303 74.47294 35861 ft 429 kts 263°
2026-05-05 11:01 26.51089 74.40765 35854 ft 429 kts 263°
2026-05-05 11:01 26.49874 74.34243 35852 ft 429 kts 263°
2026-05-05 11:02 26.48656 74.27725 35842 ft 429 kts 263°
2026-05-05 11:02 26.47435 74.21207 35843 ft 429 kts 263°
2026-05-05 11:03 26.46221 74.14738 35838 ft 429 kts 262°
2026-05-05 11:03 26.44995 74.08226 35838 ft 428 kts 262°
2026-05-05 11:04 26.43768 74.01723 35832 ft 428 kts 262°
2026-05-05 11:04 26.42537 73.95217 35827 ft 428 kts 262°
2026-05-05 11:05 26.41303 73.88713 35825 ft 428 kts 262°
2026-05-05 11:05 26.40066 73.82210 35826 ft 428 kts 262°
2026-05-05 11:06 26.38826 73.75711 35820 ft 428 kts 262°
2026-05-05 11:06 26.37583 73.69209 35818 ft 428 kts 262°
2026-05-05 11:07 26.36336 73.62704 35807 ft 428 kts 262°
2026-05-05 11:07 26.35088 73.56209 35811 ft 428 kts 262°
2026-05-05 11:08 26.33844 73.49750 35804 ft 428 kts 262°
2026-05-05 11:08 26.32590 73.43259 35805 ft 428 kts 262°
2026-05-05 11:09 26.31333 73.36768 35801 ft 428 kts 262°
2026-05-05 11:09 26.30072 73.30271 35796 ft 428 kts 262°
2026-05-05 11:10 26.28808 73.23776 35792 ft 428 kts 262°
2026-05-05 11:10 26.27542 73.17287 35792 ft 428 kts 262°
2026-05-05 11:11 26.26272 73.10790 35787 ft 429 kts 262°
2026-05-05 11:11 26.24605 73.04388 35790 ft 435 kts 252°
2026-05-05 11:12 26.21589 72.98514 35790 ft 444 kts 242°
2026-05-05 11:12 26.18078 72.92845 35783 ft 445 kts 242°
2026-05-05 11:13 26.14563 72.87171 35773 ft 445 kts 242°
2026-05-05 11:13 26.11068 72.81478 35776 ft 445 kts 242°
2026-05-05 11:14 26.07582 72.75782 35767 ft 445 kts 242°
2026-05-05 11:14 26.04095 72.70085 35772 ft 445 kts 242°
2026-05-05 11:15 26.00606 72.64393 35771 ft 446 kts 242°
2026-05-05 11:15 25.97118 72.58697 35771 ft 446 kts 242°
2026-05-05 11:16 25.93627 72.53003 35764 ft 446 kts 242°
2026-05-05 11:16 25.90148 72.47350 35758 ft 446 kts 242°
2026-05-05 11:17 25.86647 72.41672 35760 ft 446 kts 242°
2026-05-05 11:17 25.83139 72.35991 35762 ft 446 kts 242°
2026-05-05 11:18 25.79630 72.30311 35755 ft 446 kts 242°
2026-05-05 11:18 25.76116 72.24632 35755 ft 446 kts 242°
2026-05-05 11:19 25.72595 72.18952 35753 ft 446 kts 242°
2026-05-05 11:19 25.69073 72.13274 35749 ft 446 kts 242°
2026-05-05 11:20 25.65584 72.07589 35743 ft 446 kts 243°
2026-05-05 11:20 25.62150 72.01917 35740 ft 446 kts 243°
2026-05-05 11:21 25.58686 71.96209 35747 ft 446 kts 243°
2026-05-05 11:21 25.55217 71.90514 35738 ft 446 kts 243°
2026-05-05 11:22 25.51739 71.84816 35738 ft 446 kts 243°
2026-05-05 11:22 25.48259 71.79123 35740 ft 447 kts 242°
2026-05-05 11:23 25.44775 71.73430 35738 ft 447 kts 242°
2026-05-05 11:23 25.41289 71.67741 35741 ft 447 kts 242°
2026-05-05 11:24 25.37798 71.62051 35742 ft 447 kts 242°
2026-05-05 11:24 25.34303 71.56361 35748 ft 447 kts 242°
2026-05-05 11:25 25.30806 71.50678 35750 ft 447 kts 242°
2026-05-05 11:25 25.27899 71.45958 35756 ft 447 kts 242°
2026-05-05 11:26 25.24398 71.40280 35758 ft 447 kts 242°
2026-05-05 11:26 25.21459 71.34360 35759 ft 432 kts 261°
2026-05-05 11:27 25.21022 71.27879 35753 ft 420 kts 282°
2026-05-05 11:27 25.22455 71.21649 35761 ft 419 kts 287°
2026-05-05 11:28 25.23946 71.15427 35759 ft 419 kts 286°
2026-05-05 11:28 25.25397 71.09188 35756 ft 419 kts 286°
2026-05-05 11:29 25.26827 71.02947 35760 ft 419 kts 286°
2026-05-05 11:29 25.28242 70.96743 35761 ft 419 kts 286°
2026-05-05 11:30 25.29668 70.90485 35754 ft 419 kts 286°
2026-05-05 11:30 25.31088 70.84233 35756 ft 419 kts 286°
2026-05-05 11:31 25.32498 70.78012 35756 ft 420 kts 286°
2026-05-05 11:31 25.33895 70.71738 35747 ft 420 kts 284°
2026-05-05 11:32 25.35137 70.65421 35751 ft 420 kts 284°
2026-05-05 11:32 25.36342 70.59097 35752 ft 421 kts 284°
2026-05-05 11:33 25.37557 70.52768 35751 ft 421 kts 284°
2026-05-05 11:33 25.38780 70.46438 35744 ft 421 kts 284°
2026-05-05 11:34 25.40003 70.40105 35746 ft 421 kts 284°
2026-05-05 11:34 25.41213 70.33824 35750 ft 420 kts 284°
2026-05-05 11:35 25.42428 70.27494 35750 ft 420 kts 284°
2026-05-05 11:35 25.43643 70.21153 35747 ft 420 kts 284°
2026-05-05 11:36 25.44852 70.14830 35747 ft 420 kts 284°
2026-05-05 11:36 25.46057 70.08515 35745 ft 420 kts 284°
2026-05-05 11:37 25.47262 70.02189 35746 ft 420 kts 283°
2026-05-05 11:37 25.48456 69.95899 35748 ft 419 kts 284°
2026-05-05 11:38 25.49648 69.89596 35747 ft 419 kts 283°
2026-05-05 11:38 25.50843 69.83270 35748 ft 419 kts 283°
2026-05-05 11:39 25.51726 69.76880 35743 ft 423 kts 271°
2026-05-05 11:39 25.50662 69.70542 35736 ft 407 kts 261°
2026-05-05 11:39 25.49953 69.67570 35724 ft 392 kts 260°
2026-05-05 11:40 25.49261 69.64689 35735 ft 384 kts 261°
2026-05-05 11:40 25.48588 69.61835 35593 ft 384 kts 261°
2026-05-05 11:40 25.47925 69.58978 35320 ft 379 kts 261°
2026-05-05 11:40 25.47287 69.56200 34926 ft 376 kts 261°
2026-05-05 11:41 25.46648 69.53400 34567 ft 373 kts 262°
2026-05-05 11:41 25.46015 69.50613 34195 ft 370 kts 262°
2026-05-05 11:41 25.45388 69.47853 33795 ft 369 kts 262°
2026-05-05 11:41 25.44765 69.45111 33383 ft 367 kts 262°
2026-05-05 11:42 25.44144 69.42378 32974 ft 364 kts 262°
2026-05-05 11:42 25.43526 69.39664 32583 ft 362 kts 262°
2026-05-05 11:42 25.42914 69.36982 32211 ft 359 kts 262°
2026-05-05 11:42 25.42312 69.34345 31847 ft 357 kts 263°
2026-05-05 11:43 25.41707 69.31694 31477 ft 355 kts 263°
2026-05-05 11:43 25.41102 69.29050 31115 ft 352 kts 263°
2026-05-05 11:43 25.40502 69.26430 30752 ft 351 kts 263°
2026-05-05 11:43 25.39906 69.23824 30383 ft 349 kts 263°
2026-05-05 11:44 25.39310 69.21224 30021 ft 348 kts 263°
2026-05-05 11:44 25.38713 69.18624 29627 ft 347 kts 263°
2026-05-05 11:44 25.38121 69.16044 29219 ft 345 kts 263°
2026-05-05 11:44 25.37535 69.13495 28826 ft 342 kts 263°
2026-05-05 11:45 25.36951 69.10958 28449 ft 340 kts 263°
2026-05-05 11:45 25.36369 69.08427 27914 ft 341 kts 263°
2026-05-05 11:45 25.35779 69.05844 27181 ft 350 kts 263°
2026-05-05 11:45 25.35177 69.03222 26665 ft 352 kts 262°
2026-05-05 11:46 25.34578 69.00631 26214 ft 352 kts 262°
2026-05-05 11:46 25.33971 68.98011 25851 ft 350 kts 262°
2026-05-05 11:46 25.33368 68.95415 25468 ft 349 kts 262°
2026-05-05 11:46 25.32766 68.92818 25106 ft 347 kts 262°
2026-05-05 11:47 25.32166 68.90232 24720 ft 347 kts 262°
2026-05-05 11:47 25.31567 68.87653 24351 ft 346 kts 262°
2026-05-05 11:47 25.30971 68.85083 23971 ft 345 kts 262°
2026-05-05 11:47 25.30372 68.82503 23605 ft 345 kts 262°
2026-05-05 11:48 25.29176 68.77363 22809 ft 344 kts 261°
2026-05-05 11:48 25.28582 68.74813 22436 ft 342 kts 261°
2026-05-05 11:48 25.27989 68.72274 22068 ft 340 kts 261°
2026-05-05 11:49 25.27400 68.69750 21707 ft 338 kts 261°
2026-05-05 11:49 25.26812 68.67234 21351 ft 337 kts 261°
2026-05-05 11:49 25.26228 68.64738 21010 ft 335 kts 261°
2026-05-05 11:49 25.25646 68.62252 20657 ft 334 kts 261°
2026-05-05 11:50 25.25067 68.59775 20302 ft 333 kts 261°
2026-05-05 11:50 25.24489 68.57304 19941 ft 332 kts 261°
2026-05-05 11:50 25.23908 68.54828 19580 ft 332 kts 260°
2026-05-05 11:50 25.23337 68.52390 19200 ft 333 kts 260°
2026-05-05 11:51 25.22759 68.49926 18865 ft 332 kts 260°
2026-05-05 11:51 25.22180 68.47462 18553 ft 330 kts 260°
2026-05-05 11:51 25.21602 68.45006 18246 ft 329 kts 260°
2026-05-05 11:51 25.21026 68.42560 17896 ft 328 kts 259°
2026-05-05 11:52 25.20452 68.40122 17538 ft 327 kts 259°
2026-05-05 11:52 25.19880 68.37697 17215 ft 324 kts 259°
2026-05-05 11:52 25.19314 68.35297 16884 ft 322 kts 259°
2026-05-05 11:52 25.18750 68.32908 16553 ft 321 kts 259°
2026-05-05 11:53 25.18188 68.30529 16225 ft 319 kts 259°
2026-05-05 11:53 25.17628 68.28163 15907 ft 318 kts 259°
2026-05-05 11:53 25.17070 68.25806 15588 ft 317 kts 258°
2026-05-05 11:53 25.16514 68.23458 15267 ft 316 kts 258°
2026-05-05 11:54 25.15959 68.21117 14946 ft 314 kts 258°
2026-05-05 11:54 25.15406 68.18790 14624 ft 313 kts 258°
2026-05-05 11:54 25.14856 68.16472 14313 ft 312 kts 258°
2026-05-05 11:54 25.14313 68.14189 14013 ft 311 kts 258°
2026-05-05 11:55 25.13766 68.11890 13714 ft 309 kts 258°
2026-05-05 11:55 25.13220 68.09596 13403 ft 308 kts 257°
2026-05-05 11:55 25.12677 68.07316 13061 ft 307 kts 257°
2026-05-05 11:55 25.12135 68.05042 12751 ft 305 kts 257°
2026-05-05 11:56 25.11596 68.02782 12430 ft 304 kts 257°
2026-05-05 11:56 25.11059 68.00531 12102 ft 303 kts 257°
2026-05-05 11:56 25.10522 67.98285 11762 ft 302 kts 257°
2026-05-05 11:56 25.09987 67.96045 11444 ft 302 kts 257°
2026-05-05 11:57 25.09451 67.93802 11112 ft 301 kts 257°
2026-05-05 11:57 25.08916 67.91569 10807 ft 300 kts 256°
2026-05-05 11:57 25.08384 67.89346 10508 ft 299 kts 256°
2026-05-05 11:57 25.07855 67.87142 10278 ft 296 kts 256°
2026-05-05 11:58 25.07330 67.84955 9994 ft 295 kts 256°
2026-05-05 11:58 25.06812 67.82796 9721 ft 294 kts 256°
2026-05-05 11:58 25.06289 67.80618 9428 ft 293 kts 255°
2026-05-05 11:58 25.05764 67.78439 9082 ft 294 kts 255°
2026-05-05 11:59 25.05244 67.76276 8851 ft 290 kts 255°
2026-05-05 11:59 25.04727 67.74131 8518 ft 290 kts 255°
2026-05-05 11:59 25.04205 67.71969 8184 ft 290 kts 255°
2026-05-05 11:59 25.03690 67.69832 7951 ft 287 kts 255°
2026-05-05 12:00 25.03173 67.67689 7615 ft 288 kts 255°
2026-05-05 12:00 25.02662 67.65570 7392 ft 285 kts 255°
2026-05-05 12:00 25.02149 67.63445 7082 ft 286 kts 255°
2026-05-05 12:00 25.01638 67.61330 6831 ft 284 kts 255°
2026-05-05 12:01 25.01140 67.59251 6551 ft 284 kts 255°
2026-05-05 12:01 25.00639 67.57151 6290 ft 282 kts 255°
2026-05-05 12:01 25.00140 67.55061 5987 ft 282 kts 255°
2026-05-05 12:01 24.99640 67.52971 5725 ft 280 kts 255°
2026-05-05 12:02 24.99143 67.50896 5450 ft 280 kts 255°
2026-05-05 12:02 24.98645 67.48820 5131 ft 281 kts 255°
2026-05-05 12:02 24.98148 67.46745 4906 ft 279 kts 255°
2026-05-05 12:02 24.97654 67.44686 4704 ft 275 kts 255°
2026-05-05 12:03 24.97165 67.42660 4509 ft 271 kts 255°
2026-05-05 12:03 24.96682 67.40666 4244 ft 270 kts 254°
2026-05-05 12:03 24.96199 67.38673 3942 ft 268 kts 254°
2026-05-05 12:03 24.95732 67.36699 3578 ft 264 kts 255°
2026-05-05 12:04 24.95300 67.34750 3226 ft 260 kts 255°
2026-05-05 12:04 24.94940 67.32817 2874 ft 256 kts 258°
2026-05-05 12:04 24.94567 67.30919 2546 ft 250 kts 254°
2026-05-05 12:04 24.94109 67.29082 2222 ft 247 kts 252°
2026-05-05 12:05 24.93650 67.27300 1900 ft 235 kts 253°
2026-05-05 12:05 24.93227 67.25635 1616 ft 221 kts 253°
2026-05-05 12:05 24.92831 67.24070 1325 ft 203 kts 254°
2026-05-05 12:05 24.92466 67.22628 1041 ft 188 kts 254°
2026-05-05 12:06 24.92132 67.21311 814 ft 169 kts 254°
2026-05-05 12:06 24.91834 67.20122 660 ft 149 kts 249°
2026-05-05 12:06 24.91563 67.19064 411 ft 143 kts 253°
2026-05-05 12:06 24.91295 67.17997 191 ft 144 kts 251°
2026-05-05 12:07 24.91038 67.16997 103 ft 123 kts 255°
2026-05-05 12:07 24.90850 67.16245 94 ft 81 kts 253°
2026-05-05 12:07 24.90752 67.15880 94 ft 26 kts 252°
2026-05-05 12:07 24.90643 67.15736 95 ft 17 kts 208°
2026-05-05 12:08 24.90527 67.15721 91 ft 17 kts 174°
2026-05-05 12:08 24.90413 67.15755 89 ft 17 kts 167°
2026-05-05 12:08 24.90302 67.15788 88 ft 16 kts 162°
2026-05-05 12:08 24.90238 67.15750 88 ft 12 kts 252°
2026-05-05 12:09 24.90203 67.15669 89 ft 12 kts 225°
2026-05-05 12:09 24.90110 67.15654 88 ft 17 kts 175°
2026-05-05 12:09 24.90015 67.15674 88 ft 5 kts 126°
2026-05-05 12:09 24.90009 67.15711 88 ft 5 kts 91°
2026-05-05 12:10 24.90013 67.15740 88 ft 0 kts 79°